[[{"header":{"parameterUnit":"m.s-1","parameterCategory":1,"la1":30.2991,"la2":30.254,"lo1":-89.0895,"lo2":-89.0444,"dy":0.0017,"dx":0.0017,"nx":28,"ny":28,"refTime":"2023-11-07T09:00:00:Z","depth":0,"parameterNumber":2,"parameterNumberName":"U-component_of_WINDS"},"data":[0,0,0,0,0,0,0,0,0,0,0,0,0,0,0,0,0,0,0,0,0,0,0,0,0,0,0,0,0,0,0,0,0,0,0,0,0,0,0,0,0,0,0,0,0,0,0,0,0,0,0,0,0,0,0,0,0,0,-0.1181,-0.1181,0,-0.1153,-0.1152,-0.1152,-0.1156,-0.1156,-0.1157,-0.1157,-0.1128,-0.1127,-0.1126,0,0,0,0,0,0,0,0,0,0,0,0,0,-0.1239,-0.1238,-0.1181,-0.1181,-0.118,-0.1153,-0.1152,-0.1152,-0.1156,-0.1156,-0.1157,-0.1157,-0.1129,-0.1127,-0.1126,0,0,0,0,0,0,0,0,0,0,0,0,0,-0.1213,-0.1238,-0.1181,-0.1179,-0.1178,-0.1153,-0.1152,-0.1152,-0.1156,-0.1156,-0.1157,-0.1158,-0.1129,-0.1128,-0.1126,-0.1101,0,0,-0.112,-0.112,0,0,0,0,0,0,0,0,-0.1214,-0.1211,-0.118,-0.1179,-0.1178,-0.1158,-0.1162,-0.1135,-0.1155,-0.1164,-0.1157,-0.1158,-0.1138,-0.1135,-0.1129,-0.1099,-0.1098,-0.112,-0.1119,-0.1118,-0.1118,0,0,0,0,0,0,0,-0.1216,-0.1212,-0.117,-0.1179,-0.1178,-0.118,-0.1177,-0.1157,-0.1148,-0.1164,-0.1164,-0.116,-0.1138,-0.113,-0.1128,-0.1098,-0.112,-0.1119,-0.1117,-0.1117,-0.1046,-0.1045,0,0,0,0,0,0,-0.1219,-0.1213,-0.1171,-0.1169,-0.1198,-0.1178,-0.1175,-0.1164,-0.1148,-0.1146,-0.116,-0.1161,-0.1133,-0.113,-0.1127,-0.1096,-0.1118,-0.1117,-0.1116,-0.1047,-0.1046,-0.1045,0,0,0,0,0,0,-0.122,-0.1215,-0.1172,-0.1191,-0.1186,-0.1176,-0.1164,-0.1163,-0.1156,-0.1145,-0.1143,-0.1154,-0.1133,-0.1129,-0.1107,-0.1095,-0.1116,-0.1114,-0.1048,-0.1047,-0.1045,-0.1034,0,0,0,0,0,0,-0.1221,-0.1215,-0.1205,-0.1191,-0.1185,-0.1152,-0.1164,-0.1162,-0.1153,-0.1153,-0.1139,-0.1137,-0.1134,-0.111,-0.1105,-0.1093,-0.1113,-0.1049,-0.1047,-0.1046,-0.1036,-0.1033,-0.103,0,0,0,0,0,-0.1223,-0.1204,-0.1205,-0.12,-0.1172,-0.1152,-0.1148,-0.1144,-0.1152,-0.1142,-0.1135,-0.1138,-0.1097,-0.1107,-0.1102,-0.1089,-0.105,-0.1048,-0.1046,-0.1037,-0.1033,-0.103,0,0,0,0,0,0,-0.1217,-0.1202,-0.1203,-0.1178,-0.1166,-0.1152,-0.114,-0.1141,-0.1127,-0.1128,-0.1125,-0.1121,-0.1099,-0.1092,-0.1103,-0.1064,-0.1074,-0.1071,-0.1069,-0.1066,-0.1063,-0.1065,-0.1111,0,0,0,0,0,-0.1213,-0.1197,-0.1185,-0.1164,-0.1158,-0.115,-0.1141,-0.1139,-0.1126,-0.1121,-0.1113,-0.1101,-0.1085,-0.1075,-0.1061,-0.1035,-0.1032,-0.1023,-0.1021,-0.1019,-0.1016,-0.1002,-0.0998,-0.1039,-0.1039,-0.1039,0,0,-0.1204,-0.1193,-0.1184,-0.1162,-0.1153,-0.1136,-0.1146,-0.1128,-0.1116,-0.1119,-0.1097,-0.109,-0.1077,-0.1052,-0.1041,-0.1046,-0.1004,-0.1016,-0.1015,-0.1013,-0.0999,-0.0995,-0.0992,-0.1038,-0.1038,-0.1038,0,0,-0.1179,-0.1169,-0.1151,-0.1141,-0.1127,-0.1121,-0.1117,-0.1103,-0.1098,-0.1076,-0.1078,-0.1064,-0.1037,-0.1027,-0.1019,-0.099,-0.0992,-0.0985,-0.0972,-0.0957,-0.0954,-0.0951,-0.094,-0.0937,-0.0983,-0.0983,-0.0983,0,-0.1169,-0.1145,-0.1141,-0.1123,-0.1113,-0.1115,-0.1096,-0.1087,-0.1068,-0.1062,-0.1068,-0.1034,-0.1025,-0.0998,-0.0991,-0.0984,-0.0979,-0.0987,-0.0955,-0.0952,-0.0949,-0.0939,-0.0935,-0.0982,-0.0982,-0.0982,-0.0982,0,-0.1134,-0.1117,-0.1103,-0.1085,-0.1074,-0.1055,-0.1049,-0.1038,-0.1037,-0.1032,-0.1009,-0.0998,-0.0981,-0.0975,-0.0974,-0.0947,-0.0951,-0.0956,-0.0966,-0.0944,-0.0935,-0.0931,-0.0981,-0.0981,-0.0982,-0.0982,0,0,-0.1104,-0.1083,-0.1078,-0.107,-0.1054,-0.1041,-0.1023,-0.1006,-0.0996,-0.0984,-0.0968,-0.0945,-0.095,-0.094,-0.0938,-0.0926,-0.0903,-0.0932,-0.0932,-0.0926,-0.0873,-0.0869,-0.0864,-0.0904,-0.0903,-0.0903,-0.0874,0,-0.1077,-0.1044,-0.104,-0.1011,-0.0995,-0.0996,-0.098,-0.0969,-0.0963,-0.0949,-0.0942,-0.0926,-0.0933,-0.0927,-0.0915,-0.0908,-0.0892,-0.091,-0.0889,-0.0889,-0.0892,-0.0859,-0.0855,-0.0828,-0.087,-0.0869,-0.0869,0,-0.1041,-0.1027,-0.0996,-0.0982,-0.0975,-0.0961,-0.0945,-0.0931,-0.0918,-0.0914,-0.0903,-0.0903,-0.0884,-0.0895,-0.0869,-0.0882,-0.0873,-0.0868,-0.0867,-0.0864,-0.0877,-0.0855,-0.0819,-0.0815,-0.0863,-0.0863,-0.0864,0,-0.1022,-0.0995,-0.0973,-0.0966,-0.0949,-0.0939,-0.0931,-0.0919,-0.0909,-0.0895,-0.0888,-0.0872,-0.0863,-0.0851,-0.0846,-0.0855,-0.082,-0.0831,-0.0816,-0.0816,-0.0809,-0.0809,-0.077,-0.0804,-0.0804,-0.0804,-0.0804,0,-0.0992,-0.0973,-0.0964,-0.095,-0.0929,-0.0925,-0.0904,-0.0897,-0.0886,-0.0871,-0.0871,-0.0857,-0.0852,-0.0837,-0.0833,-0.0812,-0.0808,-0.0805,-0.0804,-0.0804,-0.0805,-0.0798,-0.08,-0.0803,-0.0803,-0.0803,-0.0803,0,-0.0967,-0.096,-0.0936,-0.0922,-0.0918,-0.0903,-0.089,-0.0877,-0.0872,-0.0853,-0.0848,-0.0839,-0.0821,-0.0815,-0.0794,-0.0792,-0.0767,-0.0768,-0.0771,-0.0771,-0.0756,-0.0758,-0.0712,-0.0705,-0.0743,-0.0743,-0.0743,0,-0.0948,-0.0933,-0.0917,-0.0907,-0.0899,-0.0883,-0.0872,-0.0868,-0.0857,-0.084,-0.0829,-0.0812,-0.0798,-0.0769,-0.0761,-0.0745,-0.0745,-0.073,-0.0743,-0.0744,-0.0744,-0.0745,-0.0744,-0.0728,-0.0727,-0.0727,-0.0727,0,-0.0915,-0.0912,-0.0897,-0.0881,-0.0868,-0.0855,-0.0842,-0.0834,-0.0827,-0.0815,-0.0797,-0.0786,-0.0764,-0.0746,-0.073,-0.0722,-0.0723,-0.0723,-0.0719,-0.0719,-0.0721,-0.0719,-0.0764,-0.0724,-0.0724,-0.0724,-0.0725,-0.0725,-0.0892,-0.0879,-0.0866,-0.0849,-0.0838,-0.0826,-0.0813,-0.0805,-0.079,-0.0772,-0.077,-0.075,-0.0738,-0.0715,-0.0707,-0.0691,-0.0696,-0.0689,-0.0688,-0.0686,-0.0685,-0.0724,-0.0688,-0.0688,-0.0689,-0.0689,-0.0689,0,-0.0859,-0.085,-0.0835,-0.0817,-0.0803,-0.0805,-0.0791,-0.078,-0.0762,-0.075,-0.0736,-0.0715,-0.0698,-0.0688,-0.0671,-0.0661,-0.0661,-0.0656,-0.0657,-0.0655,-0.0682,-0.0688,-0.0656,-0.0656,-0.0656,-0.0656,-0.0656,-0.0656,-0.084,-0.0818,-0.0814,-0.0786,-0.0778,-0.0758,-0.075,-0.0739,-0.0729,-0.0705,-0.0691,-0.0685,-0.0673,-0.0655,-0.064,-0.0637,-0.0631,-0.0626,-0.0624,-0.065,-0.0653,-0.0656,-0.0661,-0.0625,-0.0625,-0.0598,-0.0597,-0.0597]},{"header":{"parameterUnit":"m.s-1","parameterCategory":1,"la1":30.2991,"la2":30.254,"lo1":-89.0895,"lo2":-89.0444,"dy":0.0017,"dx":0.0017,"nx":28,"ny":28,"refTime":"2023-11-07T09:00:00:Z","depth":0,"parameterNumber":3,"parameterNumberName":"V-component_of_WINDS"},"data":[0,0,0,0,0,0,0,0,0,0,0,0,0,0,0,0,0,0,0,0,0,0,0,0,0,0,0,0,0,0,0,0,0,0,0,0,0,0,0,0,0,0,0,0,0,0,0,0,0,0,0,0,0,0,0,0,0,0,-0.4507,-0.4507,0,-0.4498,-0.4498,-0.4498,-0.4508,-0.4508,-0.4508,-0.4509,-0.4498,-0.4497,-0.4497,0,0,0,0,0,0,0,0,0,0,0,0,0,-0.4533,-0.4533,-0.4507,-0.4507,-0.4507,-0.4498,-0.4498,-0.4498,-0.4508,-0.4508,-0.4509,-0.4509,-0.4498,-0.4497,-0.4497,0,0,0,0,0,0,0,0,0,0,0,0,0,-0.4523,-0.4532,-0.4507,-0.4511,-0.4511,-0.4498,-0.4498,-0.4498,-0.4508,-0.4508,-0.4509,-0.4509,-0.4498,-0.4498,-0.4497,-0.4479,0,0,-0.4494,-0.4493,0,0,0,0,0,0,0,0,-0.4523,-0.4522,-0.451,-0.4511,-0.4511,-0.4505,-0.4503,-0.4491,-0.4507,-0.4509,-0.4509,-0.451,-0.45,-0.4499,-0.4495,-0.4478,-0.4478,-0.4493,-0.4493,-0.4492,-0.4492,0,0,0,0,0,0,0,-0.4524,-0.4522,-0.4503,-0.451,-0.4511,-0.4513,-0.4512,-0.4501,-0.4501,-0.4509,-0.4509,-0.4508,-0.45,-0.4496,-0.4495,-0.4478,-0.4493,-0.4493,-0.4492,-0.4492,-0.4446,-0.4445,0,0,0,0,0,0,-0.4524,-0.4523,-0.4504,-0.4503,-0.4519,-0.4512,-0.4511,-0.4506,-0.4501,-0.4501,-0.4508,-0.4509,-0.4498,-0.4496,-0.4495,-0.4474,-0.4492,-0.4492,-0.4491,-0.4446,-0.4446,-0.4445,0,0,0,0,0,0,-0.4525,-0.4523,-0.4504,-0.4513,-0.4511,-0.4511,-0.4505,-0.4505,-0.4502,-0.45,-0.45,-0.4504,-0.4498,-0.4496,-0.4483,-0.4473,-0.4491,-0.449,-0.4447,-0.4446,-0.4445,-0.4431,0,0,0,0,0,0,-0.4526,-0.4523,-0.4516,-0.4513,-0.451,-0.4492,-0.4505,-0.4505,-0.45,-0.4502,-0.4497,-0.4497,-0.4499,-0.4484,-0.4482,-0.4472,-0.4489,-0.4448,-0.4447,-0.4445,-0.4432,-0.443,-0.4428,0,0,0,0,0,-0.4526,-0.4512,-0.4516,-0.4513,-0.4502,-0.4492,-0.449,-0.4493,-0.45,-0.4493,-0.4492,-0.4497,-0.4475,-0.4483,-0.448,-0.447,-0.4448,-0.4447,-0.4446,-0.4433,-0.443,-0.4428,0,0,0,0,0,0,-0.4513,-0.4512,-0.4516,-0.45,-0.4496,-0.4493,-0.4485,-0.4489,-0.4483,-0.4484,-0.4487,-0.4486,-0.4472,-0.447,-0.4478,-0.4453,-0.4463,-0.4461,-0.4455,-0.4452,-0.4449,-0.4449,-0.4489,0,0,0,0,0,-0.4509,-0.4501,-0.45,-0.4486,-0.4484,-0.4485,-0.448,-0.4483,-0.4478,-0.4477,-0.4475,-0.447,-0.4462,-0.4457,-0.445,-0.4433,-0.4432,-0.4425,-0.4422,-0.442,-0.4418,-0.4409,-0.4406,-0.444,-0.444,-0.444,0,0,-0.4499,-0.4497,-0.4491,-0.4483,-0.448,-0.4472,-0.4483,-0.4473,-0.4467,-0.4475,-0.4462,-0.4461,-0.4456,-0.4441,-0.4434,-0.4439,-0.4409,-0.4418,-0.4417,-0.4416,-0.4407,-0.4404,-0.4401,-0.4439,-0.4439,-0.444,0,0,-0.4476,-0.4474,-0.4462,-0.4459,-0.4456,-0.4456,-0.4454,-0.4451,-0.445,-0.4438,-0.4444,-0.4436,-0.4423,-0.4419,-0.4415,-0.4393,-0.4397,-0.439,-0.4377,-0.4368,-0.4366,-0.4363,-0.4355,-0.4351,-0.4389,-0.4388,-0.4388,0,-0.4464,-0.4451,-0.4455,-0.4445,-0.4442,-0.445,-0.4438,-0.4435,-0.4428,-0.4425,-0.4431,-0.4415,-0.4412,-0.4396,-0.4391,-0.4388,-0.4384,-0.439,-0.4366,-0.4363,-0.4361,-0.4353,-0.435,-0.4388,-0.4388,-0.4388,-0.4388,0,-0.4436,-0.4428,-0.4419,-0.4413,-0.4408,-0.4397,-0.44,-0.4394,-0.4398,-0.4398,-0.4385,-0.4383,-0.4375,-0.4372,-0.4374,-0.4356,-0.4359,-0.4365,-0.4375,-0.4357,-0.4349,-0.4346,-0.4386,-0.4387,-0.4387,-0.4387,0,0,-0.4403,-0.4401,-0.4398,-0.4395,-0.4392,-0.4385,-0.4375,-0.4368,-0.4363,-0.4359,-0.435,-0.4339,-0.4345,-0.4341,-0.4344,-0.4336,-0.4318,-0.4343,-0.4343,-0.4338,-0.4297,-0.4292,-0.4288,-0.4322,-0.4321,-0.4321,-0.4297,0,-0.438,-0.4362,-0.4366,-0.4349,-0.4341,-0.4349,-0.434,-0.4337,-0.4337,-0.4331,-0.4331,-0.4323,-0.4332,-0.4329,-0.4322,-0.4322,-0.431,-0.4324,-0.4313,-0.4312,-0.4312,-0.4284,-0.4278,-0.4257,-0.4295,-0.4294,-0.4294,0,-0.435,-0.4345,-0.4327,-0.4326,-0.4323,-0.4314,-0.4309,-0.4302,-0.4299,-0.43,-0.4296,-0.4301,-0.429,-0.4301,-0.4287,-0.4296,-0.4292,-0.4292,-0.4291,-0.4289,-0.4301,-0.4281,-0.425,-0.4246,-0.4289,-0.4289,-0.429,0,-0.4327,-0.4316,-0.4304,-0.4302,-0.43,-0.4294,-0.4293,-0.4291,-0.4287,-0.4282,-0.4279,-0.4273,-0.4269,-0.4265,-0.4267,-0.4275,-0.4252,-0.4264,-0.4252,-0.4252,-0.4246,-0.4246,-0.4213,-0.4245,-0.4245,-0.4245,-0.4245,0,-0.43,-0.4288,-0.4294,-0.4286,-0.4273,-0.4278,-0.4266,-0.4266,-0.4264,-0.4256,-0.4263,-0.4256,-0.426,-0.4253,-0.4255,-0.4243,-0.4241,-0.4241,-0.4242,-0.424,-0.424,-0.4237,-0.4238,-0.4244,-0.4245,-0.4245,-0.4245,0,-0.4271,-0.4275,-0.4262,-0.4262,-0.4262,-0.4252,-0.4252,-0.4245,-0.4246,-0.4237,-0.4235,-0.4237,-0.4229,-0.4232,-0.4223,-0.4224,-0.4209,-0.4212,-0.421,-0.421,-0.4198,-0.4199,-0.4161,-0.4156,-0.4192,-0.4192,-0.4191,0,-0.4253,-0.4245,-0.4244,-0.424,-0.4238,-0.4231,-0.4227,-0.4232,-0.4228,-0.4224,-0.4218,-0.4211,-0.4205,-0.4192,-0.4193,-0.4186,-0.4189,-0.4176,-0.4188,-0.4186,-0.4188,-0.4188,-0.4187,-0.4173,-0.4173,-0.4172,-0.4172,0,-0.4221,-0.4223,-0.4217,-0.4212,-0.4208,-0.4204,-0.42,-0.4196,-0.4201,-0.4196,-0.4189,-0.4184,-0.4176,-0.4169,-0.4164,-0.4162,-0.4168,-0.4169,-0.4166,-0.4163,-0.4162,-0.4162,-0.4202,-0.4169,-0.4169,-0.417,-0.417,-0.417,-0.4196,-0.4189,-0.4188,-0.4181,-0.418,-0.4177,-0.417,-0.4171,-0.4165,-0.4159,-0.4163,-0.4154,-0.4151,-0.4145,-0.4143,-0.4136,-0.4141,-0.4136,-0.4135,-0.4134,-0.4132,-0.4164,-0.4135,-0.4135,-0.4135,-0.4135,-0.4135,0,-0.4163,-0.4163,-0.4157,-0.4153,-0.4148,-0.4155,-0.4152,-0.4147,-0.4139,-0.4137,-0.4132,-0.4123,-0.4117,-0.4117,-0.4111,-0.4105,-0.4108,-0.4104,-0.4103,-0.4103,-0.4128,-0.4131,-0.4102,-0.4102,-0.4102,-0.4102,-0.4102,-0.4102,-0.4145,-0.4134,-0.4136,-0.4123,-0.4123,-0.4115,-0.4113,-0.411,-0.4108,-0.4099,-0.4093,-0.4094,-0.4093,-0.4087,-0.4081,-0.4082,-0.4079,-0.4074,-0.4075,-0.4098,-0.4101,-0.4104,-0.4107,-0.4073,-0.4073,-0.405,-0.405,-0.405]}]]